When you browse on this site, cookies collect data to enhance your experience and personalize the content and advertising you see.
Visit our Privacy Policy to learn more. By continuing to use the site, you agree to this use of cookies and data.
  • In Austria
  • List of Countries
  • For 7 days
  • Water Temperature
  • Satellite Maps
  • Weather Map
  • News
  • Weather Widgets
  • user-avatar
    Login

    Hourly Weather Sugar Land

    Today, 21 February, Thursday

    Time Temperature Precipitation Wind Pressure Humidity
    00:00 +13°C° 0 mm 3 mps 759 mmHg 61%
    01:00 +13°C° 0.7 mm 3 mps 759 mmHg 66%
    02:00 +13°C° 0.7 mm 3 mps 759 mmHg 71%
    03:00 +13°C° 0.7 mm 2 mps 759 mmHg 76%
    04:00 +12°C° 0.7 mm 3 mps 758 mmHg 79%
    05:00 +12°C° 0.7 mm 3 mps 758 mmHg 82%
    06:00 +12°C° 0.7 mm 4 mps 758 mmHg 85%
    07:00 +12°C° 0.1 mm 4 mps 758 mmHg 86%
    08:00 +12°C° 0.1 mm 4 mps 758 mmHg 87%
    09:00 +12°C° 0.1 mm 4 mps 758 mmHg 88%
    10:00 +12°C° 0.1 mm 3 mps 758 mmHg 88%
    11:00 +12°C° 0.1 mm 3 mps 758 mmHg 88%
    12:00 +13°C° 0.1 mm 3 mps 758 mmHg 88%
    13:00 +13°C° 0.1 mm 3 mps 758 mmHg 88%
    14:00 +14°C° 0.1 mm 3 mps 757 mmHg 87%
    15:00 +14°C° 0.1 mm 3 mps 757 mmHg 87%
    16:00 +14°C° 0 mm 3 mps 757 mmHg 88%
    17:00 +14°C° 0 mm 3 mps 757 mmHg 89%
    18:00 +14°C° 0 mm 3 mps 757 mmHg 90%
    19:00 +14°C° 0 mm 3 mps 757 mmHg 91%
    20:00 +14°C° 0 mm 3 mps 758 mmHg 92%
    21:00 +14°C° 0 mm 3 mps 758 mmHg 93%
    22:00 +14°C° 0 mm 3 mps 758 mmHg 94%
    23:00 +16°C° 0 mm 3 mps 758 mmHg 95%

    Tomorrow, 22 February, Friday

    Time Temperature Precipitation Wind Pressure Humidity
    00:00 +16°C° 0 mm 3 mps 758 mmHg 96%
    01:00 +16°C° 0.1 mm 3 mps 758 mmHg 96%
    02:00 +16°C° 0.1 mm 3 mps 758 mmHg 96%
    03:00 +16°C° 0.1 mm 3 mps 758 mmHg 96%
    04:00 +16°C° 0.2 mm 3 mps 758 mmHg 96%
    05:00 +16°C° 0.2 mm 3 mps 758 mmHg 96%
    06:00 +16°C° 0.2 mm 3 mps 758 mmHg 96%
    07:00 +17°C° 0.1 mm 3 mps 758 mmHg 97%
    08:00 +17°C° 0.1 mm 3 mps 759 mmHg 97%
    09:00 +18°C° 0.1 mm 3 mps 759 mmHg 98%
    10:00 +20°C° 0.1 mm 3 mps 759 mmHg 94%
    11:00 +22°C° 0.1 mm 4 mps 759 mmHg 91%
    12:00 +25°C° 0.1 mm 4 mps 759 mmHg 88%
    13:00 +26°C° 0.4 mm 5 mps 758 mmHg 83%
    14:00 +27°C° 0.4 mm 5 mps 758 mmHg 78%
    15:00 +28°C° 0.4 mm 6 mps 757 mmHg 73%
    16:00 +27°C° 0.1 mm 5 mps 757 mmHg 77%
    17:00 +26°C° 0.1 mm 4 mps 757 mmHg 82%
    18:00 +25°C° 0.1 mm 4 mps 757 mmHg 87%
    19:00 +23°C° 0 mm 4 mps 757 mmHg 90%
    20:00 +22°C° 0 mm 4 mps 757 mmHg 93%
    21:00 +22°C° 0 mm 4 mps 757 mmHg 97%
    22:00 +22°C° 0 mm 4 mps 757 mmHg 97%
    23:00 +22°C° 0 mm 4 mps 757 mmHg 96%

    Day after tomorrow, 23 February, Saturday

    Time Temperature Precipitation Wind Pressure Humidity
    00:00 +22°C° 0 mm 4 mps 757 mmHg 96%
    01:00 +22°C° 0.1 mm 5 mps 757 mmHg 95%
    02:00 +22°C° 0.1 mm 5 mps 756 mmHg 95%
    03:00 +23°C° 0.1 mm 6 mps 756 mmHg 94%
    04:00 +23°C° 0 mm 6 mps 756 mmHg 93%
    05:00 +23°C° 0 mm 6 mps 756 mmHg 93%
    06:00 +22°C° 0 mm 6 mps 756 mmHg 92%
    07:00 +23°C° 0.3 mm 6 mps 757 mmHg 92%
    08:00 +23°C° 0.3 mm 6 mps 757 mmHg 93%
    09:00 +23°C° 0.3 mm 6 mps 758 mmHg 93%
    10:00 +23°C° 0.2 mm 6 mps 758 mmHg 80%
    11:00 +23°C° 0.2 mm 7 mps 759 mmHg 67%
    12:00 +23°C° 0.2 mm 7 mps 759 mmHg 55%
    13:00 +23°C° 0 mm 7 mps 759 mmHg 48%
    14:00 +23°C° 0 mm 7 mps 758 mmHg 41%
    15:00 +23°C° 0 mm 7 mps 758 mmHg 34%
    16:00 +22°C° 0 mm 5 mps 759 mmHg 37%
    17:00 +20°C° 0 mm 4 mps 759 mmHg 41%
    18:00 +19°C° 0 mm 3 mps 759 mmHg 44%
    19:00 +18°C° 0 mm 3 mps 760 mmHg 44%
    20:00 +18°C° 0 mm 2 mps 761 mmHg 44%
    21:00 +17°C° 0 mm 2 mps 761 mmHg 44%
    22:00 +17°C° 0 mm 2 mps 762 mmHg 43%
    23:00 +16°C° 0 mm 2 mps 762 mmHg 42%

    24 February, Sunday

    Time Temperature Precipitation Wind Pressure Humidity
    00:00 +16°C° 0 mm 2 mps 762 mmHg 41%
    01:00 +16°C° 0 mm 2 mps 763 mmHg 40%
    02:00 +14°C° 0 mm 3 mps 763 mmHg 39%
    03:00 +14°C° 0 mm 3 mps 763 mmHg 38%
    04:00 +14°C° 0 mm 3 mps 764 mmHg 37%
    05:00 +13°C° 0 mm 3 mps 764 mmHg 37%
    06:00 +13°C° 0 mm 3 mps 765 mmHg 37%
    07:00 +13°C° 0 mm 4 mps 765 mmHg 38%
    08:00 +13°C° 0 mm 4 mps 766 mmHg 39%
    09:00 +13°C° 0 mm 4 mps 767 mmHg 40%
    10:00 +15°C° 0 mm 4 mps 767 mmHg 38%
    11:00 +17°C° 0 mm 4 mps 767 mmHg 35%
    12:00 +19°C° 0 mm 3 mps 766 mmHg 32%
    13:00 +20°C° 0 mm 3 mps 766 mmHg 31%
    14:00 +21°C° 0 mm 3 mps 765 mmHg 30%
    15:00 +22°C° 0 mm 3 mps 764 mmHg 28%
    16:00 +20°C° 0 mm 3 mps 764 mmHg 33%
    17:00 +19°C° 0 mm 3 mps 764 mmHg 38%
    18:00 +18°C° 0 mm 3 mps 764 mmHg 42%
    19:00 +17°C° 0 mm 3 mps 765 mmHg 43%
    20:00 +16°C° 0 mm 3 mps 765 mmHg 44%
    21:00 +16°C° 0 mm 3 mps 765 mmHg 45%
    22:00 +14°C° 0 mm 3 mps 765 mmHg 47%
    23:00 +14°C° 0 mm 3 mps 765 mmHg 49%

    25 February, Monday

    Time Temperature Precipitation Wind Pressure Humidity
    00:00 +13°C° 0 mm 3 mps 765 mmHg 51%
    01:00 +13°C° 0 mm 3 mps 765 mmHg 54%
    02:00 +12°C° 0 mm 3 mps 765 mmHg 58%
    03:00 +12°C° 0 mm 3 mps 765 mmHg 61%
    04:00 +11°C° 0 mm 3 mps 765 mmHg 62%
    05:00 +11°C° 0 mm 3 mps 765 mmHg 64%
    06:00 +10°C° 0 mm 3 mps 765 mmHg 65%
    07:00 +11°C° 0 mm 4 mps 765 mmHg 65%
    08:00 +12°C° 0 mm 4 mps 766 mmHg 66%
    09:00 +13°C° 0 mm 5 mps 766 mmHg 66%
    10:00 +14°C° 0 mm 4 mps 766 mmHg 64%
    11:00 +17°C° 0 mm 4 mps 766 mmHg 62%
    12:00 +18°C° 0 mm 4 mps 765 mmHg 60%
    13:00 +18°C° 0 mm 4 mps 765 mmHg 63%
    14:00 +18°C° 0 mm 4 mps 764 mmHg 65%
    15:00 +18°C° 0 mm 4 mps 763 mmHg 67%
    16:00 +18°C° 0 mm 4 mps 763 mmHg 70%
    17:00 +17°C° 0 mm 4 mps 763 mmHg 73%
    18:00 +17°C° 0 mm 4 mps 763 mmHg 76%
    19:00 +17°C° 0 mm 4 mps 763 mmHg 78%
    20:00 +15°C° 0 mm 4 mps 763 mmHg 79%
    21:00 +15°C° 0 mm 4 mps 763 mmHg 80%
    22:00 +17°C° 0 mm 4 mps 763 mmHg 82%
    23:00 +17°C° 0 mm 3 mps 763 mmHg 84%

    26 February, Tuesday

    Time Temperature Precipitation Wind Pressure Humidity
    00:00 +17°C° 0 mm 3 mps 763 mmHg 85%
    01:00 +17°C° 0.5 mm 3 mps 762 mmHg 88%
    02:00 +17°C° 0.5 mm 3 mps 762 mmHg 90%
    03:00 +17°C° 0.5 mm 3 mps 761 mmHg 92%
    04:00 +17°C° 0.1 mm 3 mps 761 mmHg 93%
    05:00 +18°C° 0.1 mm 3 mps 761 mmHg 94%
    06:00 +18°C° 0.1 mm 3 mps 761 mmHg 94%
    07:00 +18°C° 0.1 mm 3 mps 761 mmHg 94%
    08:00 +18°C° 0.1 mm 3 mps 762 mmHg 94%
    09:00 +19°C° 0.1 mm 3 mps 762 mmHg 94%
    10:00 +20°C° 0.1 mm 3 mps 761 mmHg 92%
    11:00 +21°C° 0.1 mm 3 mps 761 mmHg 90%
    12:00 +22°C° 0.1 mm 3 mps 761 mmHg 88%
    13:00 +24°C° 0.5 mm 3 mps 760 mmHg 85%
    14:00 +25°C° 0.5 mm 2 mps 760 mmHg 81%
    15:00 +26°C° 0.5 mm 2 mps 759 mmHg 77%
    16:00 +25°C° 0.3 mm 2 mps 759 mmHg 80%
    17:00 +25°C° 0.3 mm 2 mps 759 mmHg 83%
    18:00 +24°C° 0.3 mm 2 mps 759 mmHg 85%
    19:00 +23°C° 0 mm 2 mps 759 mmHg 88%
    20:00 +23°C° 0 mm 2 mps 760 mmHg 91%
    21:00 +21°C° 0 mm 2 mps 760 mmHg 95%
    22:00 +21°C° 0.1 mm 2 mps 760 mmHg 96%
    23:00 +20°C° 0.1 mm 2 mps 760 mmHg 96%
    Show more